Regional Weather Roundup
Issued by NWS Northern Indiana

Home | Current Version | Previous Version | Graphics & Text | Print | Product List | Glossary On
Versions: 1 2 3 4 5 6 7 8 9 10 11 12 13 14 15 16 17 18 19 20 21 22 23 24 25 26 27 28 29 30 31 32 33 34 35 36 37 38 39 40 41 42 43 44 45 46 47 48 49 50
000
ASUS43 KIWX 191600
RWRIWX

KIWX WEATHER ROUNDUP
NATIONAL WEATHER SERVICE NORTHERN INDIANA
1100 AM EST FRI DEC 19 2014

NOTE: "FAIR" INDICATES FEW OR NO CLOUDS BELOW 12,000 FEET WITH NO
SIGNIFICANT WEATHER AND/OR OBSTRUCTIONS TO VISIBILITY.

* THESE STATIONS ARE NOT UNDER NWS QUALITY CONTROL. THEY ALSO MAY NOT
  REPORT WEATHER SUCH AS PRECIPITATION OR FOG.

INZ001>027-191700-
NORTHERN INDIANA

CITY           SKY/WX    TMP DP  RH WIND       PRES   REMARKS
GARY*          CLOUDY    34  19  55 CALM      30.33R
SOUTH BEND     CLOUDY    32  24  72 N3        30.30R
ELKHART*       MOSUNNY   32  18  55 CALM      30.30
GOSHEN         SUNNY     31  21  66 N6        30.29R WCI  25
MONTICELLO*    CLOUDY    27  24  91 W3        30.31R
ANGOLA*        CLOUDY    27  16  63 CALM      30.26R
FORT WAYNE     PTSUNNY   29  24  82 SW9       30.30R WCI  20

$$
INZ028>050-191700-
CENTRAL INDIANA

CITY           SKY/WX    TMP DP  RH WIND       PRES   REMARKS
LAFAYETTE      CLOUDY    25  22  88 CALM      30.33R FOG
KOKOMO*        CLOUDY    27  21  80 W6        30.31R WCI  20
MUNCIE*        CLOUDY    27  21  78 CALM      30.29S
INDIANAPOLIS   CLOUDY    25  20  81 NW3       30.31R

$$
MIZ043>046-050>051-056>058-064>065-071>073-077>080-191700-
SOUTHWEST LOWER MICHIGAN

CITY           SKY/WX    TMP DP  RH WIND       PRES   REMARKS
BATTLE CREEK   CLOUDY    29  21  72 CALM      30.26S
BENTON HARBOR  MOSUNNY   31  23  72 NE7       30.29R WCI  24
COLDWATER*     CLOUDY    29  25  87 MISG      30.26R
HILLSDALE*     CLOUDY    29  25  86 CALM      30.24R
HOLLAND        SUNNY     29  20  69 E6        30.29S WCI  23
GRAND RAPIDS   MOSUNNY   27  18  69 CALM      30.28S
KALAMAZOO      PTSUNNY   31  21  66 NE3       30.27R
STURGIS*       PTSUNNY   28  25  86 CALM      30.26R
THREE RIVERS*  FAIR      32  24  72 CALM      30.28R

$$
OHZ001>008-015>018-024>025-191700-
NORTHWEST OHIO

CITY           SKY/WX    TMP DP  RH WIND       PRES   REMARKS
DEFIANCE       CLOUDY    30  24  78 SW5       30.29R WCI  25
FINDLAY        CLOUDY    30  25  81 W7        30.27R WCI  23
TOLEDO EXPRESS CLOUDY    29  25  85 CALM      30.27R FOG
TOLEDO METCALF CLOUDY    30  25  81 E6        30.28R WCI  24
LIMA           CLOUDY    30  23  75 SW8       30.28R HAZE    WCI  22

$$
AND FOR LAKE MICHIGAN COASTAL AND OPEN LAKE BUOY OBSERVATIONS

STATION/POSITION TEMP    WIND        PRES    VSBY  WAVE
                 AIR SEA DIR/SP/G                  HT/PER
                 (F)     (DEG/KT/KT) (MB)    (MI)  (FT/S)
CALUMET HARBOR    31     310/  4/  7 1025.2R
SAINT JOSEPH      31      CALM  /  4 1025.4F

$$
&&


USA.gov is the U.S. government's official web portal to all federal, state and local government web resources and services.